Location: Unspecified
(0.0000°N, 0.0000°E)
Time: 13:30:02
(UTC+00:00)

Vela 4A - Pass Details

Date: 03 December 2021
Orbit: 58523 x 164212 km, 32.1° (Epoch: 09 January)

Event Time Altitude Azimuth Distance (km) Brightness Sun altitude
Rises 07:03:35 0° 113° (ESE) 64,790 ? 17.0°
Reaches altitude 10° 09:15:31 10° 121° (ESE) 65,974 ? 46.4°
Maximum altitude 19:05:45 65° 189° (S) 89,447 ? -17.5°
Drops below altitude 10° 01:19:42 10° 256° (WSW) 113,982 ? -58.8°
Sets 02:09:48 0° 258° (WSW) 117,600 ? -49.4°
